Location: Unspecified
(35.7250°N, 0.0000°E)
Time: 04:31:06
(UTC+00:00)

Vanguard 1 - Pass Details

Date: 28 June 2019
Orbit: 655 x 3829 km, 34.2° (Epoch: 16 August)

Event Time Altitude Azimuth Distance (km) Brightness Sun altitude
Rises 07:59:22 0° 282° (WNW) 5,471 13.4 36.4°
Reaches altitude 10° 08:04:42 10° 268° (W) 3,836 12.7 37.4°
Maximum altitude 08:10:45 19° 227° (SW) 2,475 11.9 38.7°
Drops below altitude 10° 08:15:08 10° 182° (S) 2,636 12.3 39.5°
Sets 08:17:57 0° 163° (SSE) 3,309 12.9 40.1°
